Weather History for McCall, ID

Change the Weather History Date:

Monday, February 25, 2013

  Actual Average Record
Temperature  
Mean Temperature 19 °F 24 °F  
Max Temperature 27 °F 36 °F 59 °F (1995)
Min Temperature 10 °F 12 °F -12 °F (2002)
Degree Days  
Heating Degree Days 46 41  
Month to date heating degree days 1041 1078  
Since 1 July heating degree days 5894 6552  
Cooling Degree Days 0 0  
Month to date cooling degree days 0 0  
Year to date cooling degree days 0 0  
Moisture  
Dew Point 17 °F    
Average Humidity 86    
Maximum Humidity 92    
Minimum Humidity 80    
Precipitation  
Precipitation 0.22 in 0.06 in 1.50 in (1957)
Month to date precipitation 1.11 1.56  
Year to date precipitation 4.01 3.29  
Sea Level Pressure  
Sea Level Pressure 30.05 in    
Wind  
Wind Speed 1 mph (ESE)    
Max Wind Speed 9 mph    
Max Gust Speed 12 mph    
Visibility 4 miles    
Events Fog , Snow    
T = Trace of Precipitation, MM = Missing Value Source: NWS Daily Summary

Daily Weather History Graph

Daily Weather History Graph

Search for Another Location

Airport:

Trip Planner

Search our weather history database for the weather conditions in past years. The results will help you decide how hot, cold, wet, or windy it might be!

Date:

Astronomy

Feb. 25, 2013 Rise Set
Actual Time 7:28 AM MST 6:27 PM MST
Civil Twilight 6:58 AM MST 6:56 PM MST
Nautical Twilight 6:24 AM MST 7:30 PM MST
Astronomical Twilight 5:51 AM MST 8:04 PM MST
Moon 6:48 PM MST (2/25) 6:59 AM MST (2/25)
Length of Visible Light 11h 57m
Length of Day
10h 58m
Full, 100% of the Moon is Illuminated
Feb 25
Full
Feb 25
Full
Mar 4
Last Quarter
Mar 11
New
Mar 19
First Quarter

Hourly Weather History & Observations

Time (MST) Temp. Windchill Dew Point Humidity Pressure Visibility Wind Dir Wind Speed Gust Speed Precip Events Conditions
12:51 AM 15.1 °F - 10.9 °F 84% 30.28 in 10.0 mi Calm Calm - N/A   Overcast
1:51 AM 15.1 °F 6.4 °F 12.0 °F 88% 30.27 in 9.0 mi ENE 5.8 mph - N/A   Overcast
2:51 AM 15.1 °F - 12.0 °F 88% 30.23 in 10.0 mi Calm Calm - N/A   Overcast
3:51 AM 12.0 °F - 8.1 °F 84% 30.20 in 8.0 mi Calm Calm - N/A   Mostly Cloudy
4:51 AM 12.9 °F - 9.0 °F 84% 30.18 in 10.0 mi Calm Calm - N/A   Mostly Cloudy
5:51 AM 12.9 °F - 10.0 °F 88% 30.18 in 10.0 mi Calm Calm - N/A   Overcast
6:51 AM 12.9 °F - 10.0 °F 88% 30.16 in 10.0 mi Calm Calm - N/A   Scattered Clouds
7:51 AM 16.0 °F 10.4 °F 12.0 °F 84% 30.15 in 10.0 mi NE 3.5 mph - N/A   Overcast
8:15 AM 15.8 °F - 12.2 °F 86% 29.99 in 2.0 mi Calm Calm - 0.00 in Snow Light Snow
8:23 AM 15.8 °F - 12.2 °F 86% 29.98 in 1.2 mi Calm Calm - 0.00 in Snow Light Snow
8:51 AM 17.1 °F - 14.0 °F 88% 30.15 in 1.5 mi Calm Calm - 0.01 in Snow Light Snow
9:05 AM 17.6 °F - 15.8 °F 93% 29.97 in 1.0 mi Calm Calm - 0.00 in Snow Light Snow
9:13 AM 17.6 °F - 15.8 °F 93% 29.97 in 1.2 mi Calm Calm - 0.01 in Snow Light Snow
9:21 AM 17.6 °F - 15.8 °F 93% 29.97 in 0.8 mi Calm Calm - 0.01 in Snow Light Snow
9:40 AM 17.6 °F 12.3 °F 15.8 °F 93% 29.97 in 0.5 mi NW 3.5 mph - 0.02 in Fog , Snow Snow
9:51 AM 19.9 °F - 17.1 °F 89% 30.13 in 0.5 mi Calm Calm - 0.03 in Fog , Snow Snow
10:20 AM 21.2 °F - 17.6 °F 86% 29.96 in 0.2 mi Calm Calm - 0.03 in Fog , Snow Snow
10:51 AM 21.9 °F - 19.0 °F 89% 30.13 in 0.8 mi Calm Calm - 0.05 in Snow Light Snow
11:35 AM 21.2 °F 14.9 °F 19.4 °F 93% 29.97 in 1.0 mi East 4.6 mph - 0.03 in Snow Light Snow
11:42 AM 21.2 °F - 19.4 °F 93% 29.97 in 1.2 mi Calm Calm - 0.03 in Snow Light Snow
11:51 AM 23.0 °F 17.0 °F 19.0 °F 85% 30.12 in 2.0 mi ESE 4.6 mph - 0.04 in Snow Light Snow
11:55 AM 23.0 °F - 19.4 °F 86% 29.96 in 3.0 mi Calm Calm - 0.00 in Snow Light Snow
12:13 PM 24.8 °F - 19.4 °F 80% 29.97 in 3.0 mi Calm Calm - 0.00 in Snow Light Snow
12:19 PM 24.8 °F 20.5 °F 19.4 °F 80% 29.97 in 3.0 mi SE 3.5 mph - 0.00 in Snow Light Snow
12:41 PM 24.8 °F 19.1 °F 19.4 °F 80% 29.96 in 1.8 mi SE 4.6 mph - 0.00 in Snow Light Snow
12:47 PM 24.8 °F 19.1 °F 19.4 °F 80% 29.96 in 0.8 mi SSE 4.6 mph - 0.00 in Snow Light Snow
12:51 PM 23.0 °F 18.4 °F 19.9 °F 88% 30.12 in 0.8 mi South 3.5 mph - 0.00 in Snow Light Snow
12:59 PM 23.0 °F 18.4 °F 21.2 °F 93% 29.95 in 1.0 mi SSE 3.5 mph - 0.01 in Snow Light Snow
1:05 PM 23.0 °F 18.4 °F 21.2 °F 93% 29.95 in 1.8 mi South 3.5 mph - 0.01 in Snow Light Snow
1:09 PM 23.0 °F - 21.2 °F 93% 29.96 in 3.0 mi Calm Calm - 0.01 in Snow Light Snow
1:51 PM 24.1 °F - 19.9 °F 84% 30.11 in 10.0 mi Calm Calm - 0.01 in   Overcast
2:31 PM 24.8 °F - 21.2 °F 86% 29.96 in 2.0 mi Calm Calm - 0.00 in Snow Light Snow
2:51 PM 26.1 °F - 21.0 °F 81% 30.10 in 2.0 mi Calm Calm - 0.00 in Snow Light Snow
3:11 PM 24.8 °F - 21.2 °F 86% 29.96 in 3.0 mi Calm Calm - 0.00 in Snow Light Snow
3:51 PM 26.1 °F 20.5 °F 21.9 °F 84% 30.11 in 10.0 mi South 4.6 mph - 0.01 in   Overcast
4:10 PM 26.6 °F 20.0 °F 21.2 °F 80% 29.97 in 2.0 mi South 5.8 mph - 0.00 in Snow Light Snow
4:20 PM 24.8 °F 20.5 °F 21.2 °F 86% 29.97 in 6.0 mi South 3.5 mph - 0.00 in Snow Light Snow
4:34 PM 24.8 °F 19.1 °F 23.0 °F 93% 29.97 in 2.5 mi South 4.6 mph - 0.00 in Snow Light Snow
4:51 PM 25.0 °F 20.7 °F 21.9 °F 88% 30.12 in 7.0 mi South 3.5 mph - 0.00 in Snow Light Snow
5:21 PM 24.8 °F - 21.2 °F 86% 29.96 in 1.8 mi Calm Calm - 0.00 in Snow Light Snow
5:44 PM 26.6 °F - 21.2 °F 80% 29.96 in 3.0 mi Calm Calm - 0.00 in Snow Light Snow
5:51 PM 25.0 °F - 21.9 °F 88% 30.12 in 4.0 mi Calm Calm - 0.00 in Snow Light Snow
5:56 PM 24.8 °F - 21.2 °F 86% 29.96 in 1.8 mi Calm Calm - 0.00 in Snow Light Snow
6:03 PM 24.8 °F - 21.2 °F 86% 29.96 in 0.8 mi Calm Calm - 0.00 in Snow Light Snow
6:20 PM 24.8 °F - 21.2 °F 86% 29.97 in 1.0 mi Calm Calm - 0.01 in Snow Light Snow
6:27 PM 24.8 °F - 21.2 °F 86% 29.97 in 0.8 mi Calm Calm - 0.01 in Snow Light Snow
6:34 PM 24.8 °F 16.1 °F 21.2 °F 86% 29.98 in 0.5 mi NNW 8.1 mph - N/A Fog , Snow Snow
6:51 PM 24.1 °F - 21.9 °F 91% 30.13 in 0.2 mi Calm Calm - 0.05 in Fog , Snow Heavy Snow
6:58 PM 24.8 °F 20.5 °F 21.2 °F 86% 29.98 in 0.8 mi North 3.5 mph - 0.02 in Snow Light Snow
7:00 PM 24.8 °F 19.1 °F 21.2 °F 86% 29.98 in 1.0 mi North 4.6 mph - 0.02 in Snow Light Snow
7:03 PM 24.8 °F 19.1 °F 21.2 °F 86% 29.98 in 2.0 mi North 4.6 mph - 0.02 in Snow Light Snow
7:14 PM 24.8 °F - 21.2 °F 86% 29.99 in 2.5 mi Calm Calm - 0.02 in Snow Light Snow
7:16 PM 24.8 °F - 21.2 °F 86% 29.99 in 3.0 mi Calm Calm - 0.02 in Snow Light Snow
7:44 PM 23.0 °F - 21.2 °F 93% 30.00 in 4.0 mi Calm Calm - 0.02 in Snow Light Snow
7:51 PM 23.0 °F - 19.9 °F 88% 30.15 in 6.0 mi Calm Calm - 0.02 in Snow Light Snow
8:18 PM 21.2 °F - 19.4 °F 93% 30.00 in 10.0 mi Calm Calm - 0.00 in   Overcast
8:51 PM 19.0 °F 13.9 °F 16.0 °F 88% 30.18 in 10.0 mi NNE 3.5 mph - 0.00 in   Overcast
9:51 PM 16.0 °F - 12.9 °F 88% 30.19 in 10.0 mi Calm Calm - N/A   Partly Cloudy
9:58 PM 10.4 °F - 8.6 °F 92% 30.03 in 1.5 mi Calm Calm - N/A   Clear
10:02 PM 12.2 °F - 8.6 °F 85% 30.03 in 0.8 mi Calm Calm - N/A   Clear
10:08 PM 12.2 °F - 10.4 °F 92% 30.03 in 1.2 mi Calm Calm - N/A   Clear
10:12 PM 12.2 °F - 10.4 °F 92% 30.03 in 3.0 mi Calm Calm - N/A   Clear
10:36 PM 10.4 °F 4.0 °F 6.8 °F 85% 30.02 in 10.0 mi ENE 3.5 mph - N/A   Mostly Cloudy
10:51 PM 14.0 °F - 10.9 °F 88% 30.19 in 10.0 mi Calm Calm - N/A   Overcast
11:03 PM 15.8 °F - 10.4 °F 79% 30.03 in 8.0 mi Calm Calm - N/A   Overcast
11:11 PM 15.8 °F 5.1 °F 12.2 °F 86% 30.04 in 6.0 mi NW 8.1 mph - N/A   Overcast
11:24 PM 15.8 °F - 14.0 °F 93% 30.04 in 9.0 mi Calm Calm - N/A   Overcast
11:51 PM 14.0 °F - 10.9 °F 88% 30.20 in 10.0 mi Calm Calm - N/A   Mostly Cloudy